Location: Ariel
(45.9570°N, 122.5700°W)
Time: 05:46:28
(UTC-07:00)

Vanguard 3 - Pass Details

Date: 30 August 2019
Orbit: 508 x 3262 km, 33.3° (Epoch: 23 October)

Event Time Altitude Azimuth Distance (km) Brightness Sun altitude
Rises 14:21:26 0° 219° (SW) 6,891 12.5 49.9°
Reaches altitude 10° 14:27:26 10° 210° (SSW) 5,529 12.3 49.4°
Maximum altitude 14:39:11 27° 161° (SSE) 3,361 11.1 48.3°
Drops below altitude 10° 14:47:09 10° 109° (ESE) 3,683 10.5 47.5°
Sets 14:50:11 0° 97° (E) 4,302 10.6 47.2°
